Location: Bazinghen
(50.8246°N, 1.6616°E)
Time: 05:12:19
(UTC+00:00)

deb Explorer XXII - Visible Passes

Search period start: 21 May 2022 00:00
Search period end: 31 May 2022 00:00
Orbit: 790 x 960 km, 79.3° (Epoch: 20 May)

Date Brightness Start Highest point End Pass type
(mag) Time Alt. Az. Time Alt. Az. Time Alt. Az.
21 May ? 01:51:24 10° SSE 01:55:51 27° E 02:00:27 10° NE visible
22 May ? 01:46:32 10° SSE 01:51:07 29° E 01:55:51 10° NNE visible
23 May ? 01:41:41 10° SSE 01:46:22 31° E 01:51:14 10° NNE visible
24 May ? 01:36:50 10° SSE 01:41:37 33° E 01:46:37 10° NNE visible
25 May ? 01:32:02 10° SSE 01:36:54 36° E 01:42:00 10° NNE visible
26 May ? 01:27:32 12° SSE 01:32:09 38° E 01:37:22 10° NNE visible
27 May ? 01:23:01 13° SSE 01:27:25 41° E 01:32:44 10° NNE visible
27 May ? 03:06:11 10° SW 03:11:13 36° WNW 03:16:30 10° N visible
28 May ? 01:18:29 15° SSE 01:22:41 44° E 01:28:06 10° NNE visible
28 May ? 03:01:34 10° SW 03:06:34 34° WNW 03:11:47 10° N visible
29 May ? 01:13:55 17° SSE 01:17:58 47° E 01:23:27 10° NNE visible
29 May ? 02:56:58 10° SW 03:01:54 32° WNW 03:07:04 10° N visible
30 May ? 01:09:20 18° SSE 01:13:14 51° E 01:18:48 10° NNE visible
30 May ? 02:52:22 10° WSW 02:57:15 31° WNW 03:02:21 10° N visible
